RH
19 18 18 18 19 19 19 18 18 17 16 15 14 13 13 12 12 12 13 16 18 19 20 20 20 19 19 19 19 20 20 20 20 20 19 19 19 19 18 18 18 18 18 18 19 20 20 20 20 20 21 21 22 22 22 21 21 21 21 22 23 25 26 26 25 23 22 20 19 19 18 18 18 16 16 16 15 15 15 13 12 13 15 18 20 25 33 38
18 18 18 19 19 19 18 17 16 15 14 13 12 11 11 10 9 10 11 14 17 19 19 20 20 20 20 19 19 20 20 20 20 20 20 19 19 19 19 19 18 18 18 18 19 20 20 20 20 21 21 21 22 22 21 21 21 21 22 23 25 27 27 26 25 23 22 22 21 21 20 20 19 17 17 17 16 16 15 13 12 11 11 12 15 22 30 35
18 18 19 19 19 18 17 15 14 13 12 11 10 10 9 8 8 8 10 12 15 17 18 19 19 19 19 18 18 18 19 19 19 19 19 19 19 19 19 19 18 18 18 18 18 19 20 20 20 20 20 20 21 21 20 20 20 21 22 24 26 27 27 26 24 23 22 22 23 23 22 22 20 19 18 17 17 16 15 15 17 21 21 19 23 28 31 33
18 18 19 19 18 17 15 13 12 11 10 10 9 9 8 7 7 7 9 11 13 15 17 18 18 17 16 16 15 15 16 17 18 18 18 18 18 18 19 18 18 18 18 18 18 18 19 20 20 19 19 19 19 19 20 19 19 19 21 23 25 26 26 25 24 23 22 22 24 24 24 23 21 21 19 18 17 17 19 25 35 44 42 32 28 30 33 38
18 19 19 18 16 14 13 11 11 10 10 9 9 9 8 7 6 7 9 11 12 14 15 15 15 14 13 13 13 13 14 15 16 17 17 17 17 17 17 16 16 16 16 16 17 17 18 19 19 19 19 18 18 18 18 18 18 19 20 22 23 24 24 23 23 23 22 23 24 24 24 23 22 21 19 18 18 21 28 42 57 59 50 40 36 38 44 49
19 19 18 17 14 12 12 11 11 10 10 10 9 8 7 7 7 8 9 11 12 13 13 13 13 12 12 12 11 11 12 13 14 15 16 15 15 14 13 12 11 11 12 13 14 15 16 17 18 18 18 18 17 17 17 17 17 18 19 20 21 21 21 21 21 21 21 23 24 24 24 23 22 21 20 19 19 21 24 38 57 55 49 51 53 55 57 59
19 19 17 15 13 12 12 12 11 11 10 10 10 8 7 8 8 9 10 11 11 12 12 12 12 12 11 11 11 11 11 11 12 13 13 12 11 10 9 8 8 8 9 10 11 13 14 16 17 18 18 17 17 17 17 16 16 16 17 18 19 20 20 20 20 21 21 22 23 23 23 22 22 20 20 22 23 22 20 27 41 43 51 61 62 62 62 62
20 18 16 13 12 13 13 13 12 11 10 11 10 9 8 9 10 10 11 11 11 12 11 12 11 11 10 10 10 10 9 9 10 10 9 8 7 7 6 6 7 8 8 9 10 12 13 15 16 16 16 16 16 16 15 15 14 14 15 16 17 19 19 20 21 21 21 22 22 22 21 20 20 20 22 27 29 29 28 32 38 45 59 66 64 64 64 63
20 17 15 13 13 13 14 14 13 12 11 11 11 10 9 9 10 11 11 11 11 11 11 11 10 9 9 8 8 8 8 8 7 7 7 6 6 5 5 6 6 7 8 9 10 11 12 13 13 14 14 13 13 13 13 13 13 13 13 14 15 17 18 20 21 21 21 21 22 21 20 20 18 20 25 29 32 33 35 41 46 52 61 63 65 65 63 62
19 16 14 13 14 14 15 15 15 14 13 12 11 11 10 9 10 11 11 12 11 11 11 10 9 9 8 7 7 7 7 7 7 6 6 6 5 5 5 5 6 6 7 8 9 9 10 10 10 11 11 10 10 10 10 11 12 12 12 13 14 15 16 19 20 20 21 20 21 20 19 20 17 21 28 31 34 35 36 44 50 56 61 63 64 62 61 61
18 16 14 14 14 15 15 15 16 16 15 14 13 12 11 10 10 10 11 11 12 12 11 10 9 8 7 7 7 6 7 7 7 6 6 6 6 6 6 5 6 6 6 7 8 9 9 9 9 9 9 9 9 9 10 11 11 11 12 13 13 15 16 18 19 19 20 19 19 18 18 18 18 23 28 30 35 36 38 44 50 56 60 61 61 58 58 57
18 16 15 15 15 15 15 15 15 16 16 16 15 14 13 11 10 10 10 10 11 12 12 12 10 9 8 7 7 7 7 7 6 6 6 6 6 6 6 6 6 6 6 6 7 8 8 8 8 8 9 9 10 10 11 11 11 12 12 13 13 14 15 16 17 17 17 17 17 17 17 17 18 25 29 30 35 37 40 44 48 53 56 58 58 54 51 50
18 16 16 16 16 16 16 16 16 16 16 16 16 16 15 14 13 11 10 10 10 11 12 13 13 13 11 9 8 7 7 7 7 6 6 6 6 6 7 6 6 6 6 6 6 7 7 8 8 8 9 9 10 10 11 11 11 12 12 12 13 13 14 14 15 15 15 15 15 16 19 19 18 23 29 32 37 39 41 43 46 50 52 54 52 45 43 46
19 17 17 17 17 17 17 17 17 16 16 16 17 17 17 16 15 14 13 12 11 10 11 11 12 13 13 12 11 9 8 7 7 6 6 6 6 7 7 7 6 6 6 6 7 7 7 8 8 8 9 9 10 10 11 11 11 12 12 12 12 12 13 13 13 13 13 15 14 14 19 21 20 23 28 31 35 39 41 43 46 48 49 49 46 43 40 40
20 18 18 18 19 18 18 18 18 17 17 17 17 17 17 17 17 16 15 14 13 12 11 11 11 12 12 13 12 12 10 9 8 7 7 7 7 7 7 7 7 7 7 7 7 7 7 8 8 8 9 9 9 10 11 11 11 12 12 12 12 12 12 12 12 12 13 15 14 14 18 22 24 26 29 33 35 38 42 46 48 48 48 46 42 39 32 30
21 20 19 19 20 19 19 19 18 18 18 18 18 18 18 18 17 17 17 16 15 14 13 12 11 11 11 12 12 12 12 11 10 8 8 8 8 8 8 8 8 7 7 7 8 8 7 8 8 8 8 9 9 10 11 11 12 13 12 13 13 13 13 13 13 13 14 15 15 15 17 21 28 31 33 36 37 37 41 43 44 44 42 38 33 27 22 23
21 20 20 20 20 20 20 19 19 19 19 19 19 19 19 19 18 17 16 16 16 15 13 13 13 12 11 11 11 12 12 12 11 11 10 9 9 10 10 9 9 9 8 9 9 9 9 9 10 10 10 10 10 11 13 14 14 14 14 14 15 15 15 16 16 16 16 17 17 17 18 19 27 35 38 41 40 36 38 37 35 35 30 27 24 19 18 20
21 21 20 20 20 20 20 20 20 20 20 20 20 20 20 20 19 18 17 16 16 16 14 12 13 13 13 12 11 11 11 12 12 12 11 11 11 11 11 11 10 10 10 11 12 12 13 13 13 14 13 12 13 14 16 16 15 15 16 16 17 18 18 19 19 19 19 19 20 20 21 20 24 32 40 47 45 36 35 33 29 26 20 20 20 18 19 21
21 21 20 20 20 20 21 21 21 21 21 21 21 21 21 21 21 19 19 18 17 17 15 13 12 12 13 13 13 12 12 12 11 12 12 12 12 12 12 12 13 12 12 13 14 15 15 16 16 16 16 15 15 16 17 17 17 17 18 18 18 19 21 21 21 20 19 20 21 21 22 21 23 29 34 40 40 33 29 27 22 20 18 20 23 23 23 24
21 20 20 20 20 21 21 22 23 23 23 23 23 22 22 22 22 21 20 19 19 18 16 15 13 11 10 11 12 13 13 13 13 12 12 12 12 12 12 13 13 14 14 14 15 16 17 18 19 18 17 16 16 17 17 17 18 19 20 20 19 20 21 22 21 20 18 19 20 20 21 21 22 29 31 31 31 27 23 19 17 18 21 26 30 31 30 30
22 21 21 21 22 23 24 24 25 24 24 25 25 24 24 24 23 21 21 20 20 19 19 18 16 14 12 10 9 10 11 13 14 14 14 14 13 13 13 13 14 14 15 14 15 17 18 20 20 19 19 18 17 18 18 18 19 20 20 20 20 20 20 21 21 20 18 18 19 17 18 20 20 25 28 24 23 22 19 17 16 17 24 31 34 37 40 40
25 24 24 25 26 26 27 27 27 27 27 26 26 26 25 25 24 22 21 20 20 20 20 20 20 19 17 15 13 11 9 9 10 12 14 15 16 16 15 14 14 14 15 15 16 17 19 20 19 18 18 18 19 19 19 19 19 19 19 19 20 19 20 20 20 20 19 18 18 17 17 18 17 18 21 20 18 19 18 19 18 18 26 35 37 40 43 44
29 30 30 31 31 31 31 31 30 30 29 28 27 26 25 25 24 23 22 20 19 19 19 19 20 21 20 20 18 15 12 9 8 9 10 13 15 17 17 17 17 16 16 16 16 17 18 18 17 15 15 16 17 17 18 19 19 20 19 19 19 18 19 19 19 19 19 18 18 17 17 17 17 17 18 19 18 19 20 21 20 20 28 36 41 43 44 46
38 39 39 38 37 36 35 34 33 32 31 29 27 26 25 23 21 21 20 18 18 17 18 18 18 20 21 21 20 19 17 14 12 10 9 10 10 11 13 15 16 17 17 17 18 19 19 17 16 16 15 15 15 15 16 16 17 18 18 18 18 18 18 18 18 18 17 17 17 16 16 17 18 18 20 21 21 23 24 25 25 26 30 35 40 45 49 51
49 48 45 43 42 40 39 37 35 33 31 28 25 23 21 19 17 16 15 15 15 16 17 17 18 19 20 21 22 22 21 21 19 17 16 15 14 13 12 11 12 12 11 12 14 18 20 19 19 20 19 18 19 18 17 17 17 16 17 18 17 17 17 16 16 15 15 16 15 15 16 16 18 21 23 23 25 27 29 30 30 28 28 31 35 40 44 49
53 50 47 46 43 42 40 37 33 30 27 22 19 17 15 14 12 11 12 12 11 13 14 16 20 22 22 22 23 23 24 25 24 23 23 23 22 21 18 16 14 13 10 9 8 9 12 12 13 15 16 17 20 22 22 20 20 20 20 20 19 18 17 16 16 16 17 18 17 17 17 17 18 22 25 24 27 30 32 34 34 30 28 30 35 38 41 48
51 48 46 43 40 39 36 32 28 24 19 15 13 12 10 9 8 8 10 9 10 15 16 17 22 26 28 29 29 30 31 30 29 29 28 28 28 27 26 25 24 23 21 18 15 13 12 10 9 9 9 10 15 21 24 23 24 26 25 25 26 25 23 23 23 24 24 23 23 23 21 20 18 22 27 26 28 32 34 37 38 39 40 42 44 43 42 46
48 45 42 38 34 31 28 24 20 15 11 9 9 7 6 6 6 7 7 6 14 25 27 26 26 27 30 33 34 36 37 35 34 34 33 32 32 30 30 29 30 30 29 28 26 24 22 20 18 16 14 13 14 17 19 22 26 29 28 29 30 30 30 30 30 30 27 25 27 26 25 24 20 22 26 25 27 31 34 37 40 47 53 53 50 42 37 37
45 40 35 29 25 21 17 14 12 9 7 6 6 5 5 6 5 6 5 8 21 32 35 36 37 36 37 39 40 41 40 39 37 36 34 33 32 30 29 29 29 29 28 28 27 26 26 25 24 24 23 22 20 20 19 20 24 26 28 33 36 37 38 38 35 33 29 26 29 31 28 27 25 25 25 23 26 31 32 33 36 45 52 54 51 45 40 37
42 33 26 20 16 13 10 8 7 6 5 5 5 5 5 6 6 7 5 10 23 33 38 43 47 48 50 51 51 48 43 37 31 26 24 23 23 23 23 23 23 23 22 22 22 22 22 22 24 24 24 25 25 26 24 23 24 25 29 35 39 41 41 39 36 31 26 23 26 29 26 24 23 24 24 22 25 28 29 32 35 39 44 48 52 52 47 38
37 26 18 14 11 9 8 7 7 6 6 6 6 6 7 7 8 8 9 17 27 33 39 44 51 56 52 46 45 40 30 21 14 10 9 10 10 11 12 14 15 15 16 16 16 17 17 17 20 21 22 23 24 26 27 27 26 28 32 35 38 41 38 35 34 30 26 24 25 26 23 22 22 21 21 21 21 22 23 27 30 32 35 38 39 39 35 25
29 19 14 11 9 8 8 8 8 7 7 8 8 9 9 10 12 12 15 25 31 35 40 42 50 55 39 22 20 18 11 7 6 5 4 5 5 5 5 6 7 8 9 10 11 12 13 15 17 18 21 23 25 27 28 28 29 31 35 37 40 41 36 34 35 32 30 30 29 27 25 24 23 21 20 19 19 18 18 18 19 21 23 24 25 26 26 22
21 16 13 11 9 9 9 9 10 10 10 10 11 12 12 12 15 16 17 22 27 36 42 37 33 32 19 6 7 9 6 6 7 6 5 4 4 4 4 4 4 3 4 5 6 8 11 15 17 18 22 25 28 32 34 36 38 38 41 43 43 43 38 36 37 36 37 38 35 34 32 30 28 27 25 23 22 20 17 17 17 18 18 20 29 37 45 50
18 16 13 11 9 10 10 10 11 12 12 13 13 14 13 13 14 17 18 19 21 28 35 32 20 11 8 9 10 9 8 8 8 7 7 6 6 5 5 5 4 4 4 4 4 6 9 14 17 20 23 24 28 33 36 38 40 39 39 41 42 45 45 45 45 45 45 45 44 44 44 42 41 42 39 35 32 29 25 22 21 21 20 23 36 49 66 83
18 15 13 10 10 10 11 11 12 13 14 14 15 15 14 13 12 13 15 16 17 20 23 27 22 13 11 14 13 10 9 10 10 9 9 8 8 7 6 6 5 5 5 5 5 5 7 10 13 15 17 20 27 33 34 34 40 42 41 42 47 52 54 52 51 48 48 50 50 51 50 47 48 52 51 48 45 40 35 29 24 24 24 27 38 53 71 92
18 15 13 10 9 10 11 12 12 12 13 14 15 15 14 13 11 10 12 12 14 15 15 20 23 20 17 17 15 12 10 11 12 11 10 10 9 9 9 8 7 7 6 6 6 5 5 7 10 11 12 15 22 30 34 38 45 51 54 58 62 65 64 62 59 54 48 48 48 50 53 50 47 49 50 51 53 52 45 37 30 29 29 31 41 57 72 87
17 15 13 11 9 10 10 11 12 12 12 13 13 13 13 12 11 10 11 11 12 12 12 15 18 18 16 15 13 10 9 10 11 10 10 10 10 10 10 9 8 7 7 6 6 5 5 6 8 10 11 13 16 22 32 38 43 51 60 66 73 77 75 72 73 68 58 53 47 44 49 47 42 44 46 47 54 59 57 51 46 45 44 41 45 60 74 81
17 16 13 11 10 10 10 10 11 11 11 11 11 11 11 11 11 11 11 11 12 11 11 12 11 11 11 11 10 9 10 10 10 11 11 10 11 11 10 9 9 7 6 7 6 5 5 4 6 8 10 14 14 18 29 36 39 48 57 64 73 81 80 78 79 75 68 64 54 47 47 43 40 49 55 52 54 61 65 64 59 54 51 47 46 55 66 75
17 16 14 13 11 10 10 10 10 10 9 9 9 9 10 10 11 12 11 11 11 11 10 10 9 9 9 9 9 10 11 11 11 11 11 10 11 11 10 9 8 7 6 6 5 5 5 4 5 7 8 12 13 17 27 36 43 51 56 61 68 76 80 79 78 74 71 69 61 54 51 42 42 56 66 62 58 61 67 67 60 52 47 44 45 48 54 62
19 17 15 14 13 12 11 10 10 11 10 9 9 9 9 10 11 11 11 11 11 10 10 9 9 9 9 9 10 11 12 12 12 11 11 10 10 9 9 8 7 6 6 6 5 5 5 4 4 5 6 9 11 14 20 27 35 43 50 56 63 74 82 82 80 78 78 78 72 65 57 48 47 55 61 62 59 59 61 60 55 51 48 45 45 46 48 50
20 19 17 15 14 13 13 12 12 12 12 12 11 11 11 11 11 11 11 11 11 10 10 10 10 10 10 11 12 12 12 12 11 11 10 10 9 8 8 7 7 6 5 5 5 4 4 4 4 4 4 6 7 9 12 15 18 22 29 36 43 54 63 69 71 70 69 72 73 71 67 62 60 60 58 58 58 61 63 60 54 49 46 46 44 42 41 41
19 19 18 17 16 15 14 14 13 13 13 14 13 13 13 13 12 12 11 11 11 11 11 11 12 12 12 12 12 12 12 12 11 11 10 10 9 8 7 7 6 5 5 5 4 4 4 4 4 3 4 5 6 8 12 15 14 15 20 29 38 43 47 51 56 59 61 59 60 64 63 61 64 64 60 55 58 70 75 71 66 60 53 48 43 42 41 37
17 18 18 17 17 16 16 16 15 14 14 15 15 15 15 15 15 14 13 13 12 12 12 12 12 13 13 13 13 12 12 12 12 11 10 10 9 8 7 7 6 5 5 5 4 5 4 4 4 4 4 5 6 8 12 16 18 19 22 32 43 49 55 58 61 70 77 72 73 76 64 58 65 64 57 57 65 83 91 86 81 76 67 57 48 46 45 41
12 15 17 18 17 17 17 17 18 17 17 16 16 16 16 16 16 16 15 15 14 14 13 13 13 13 13 13 13 13 12 12 12 11 11 10 9 8 7 7 6 6 5 5 5 5 5 5 5 5 6 7 8 10 12 15 18 21 25 29 35 42 54 65 70 74 77 80 93 95 77 76 89 84 76 74 70 75 82 81 79 80 81 79 70 60 52 45
10 12 13 15 16 17 17 17 18 19 19 18 18 17 16 16 16 16 16 16 15 15 14 14 14 13 13 13 13 13 12 12 11 11 10 9 9 8 7 7 7 6 6 6 6 6 6 6 6 7 8 9 11 13 16 18 20 21 23 25 28 31 38 48 55 54 54 63 81 91 86 85 94 98 100 96 86 79 75 72 72 77 82 83 80 74 66 57
8 10 11 12 13 14 15 16 17 18 18 18 18 17 17 17 16 16 16 16 16 15 14 14 14 13 13 13 12 12 12 11 11 10 9 9 8 8 7 7 7 7 7 7 8 8 8 9 10 11 12 14 17 20 21 24 26 27 29 29 30 31 30 34 37 36 40 45 50 64 73 64 64 80 89 89 90 88 81 76 73 69 63 58 56 57 57 56
8 8 8 9 10 11 12 12 13 14 15 15 16 16 16 16 16 15 16 15 15 14 14 14 13 13 12 12 12 11 10 10 9 8 8 8 7 7 7 8 9 9 9 10 11 12 12 14 16 19 21 23 26 29 31 33 34 35 37 38 38 38 37 36 36 34 38 39 33 41 49 40 40 55 60 61 67 67 63 65 62 56 48 38 33 34 36 40
8 8 8 8 8 8 9 9 10 10 10 11 11 11 12 12 13 13 14 14 14 13 13 12 12 11 11 10 10 9 9 9 8 8 8 7 8 9 9 11 13 14 16 17 18 19 20 23 26 29 32 33 35 38 39 40 41 40 41 43 45 46 44 43 44 42 41 40 37 38 40 35 36 43 44 47 50 45 42 43 41 39 36 31 30 30 30 31
12 9 8 7 7 7 7 7 7 7 8 8 8 8 8 9 9 10 10 10 11 11 10 10 10 9 8 8 8 8 7 7 7 7 8 8 10 12 14 18 20 21 26 30 32 32 33 35 37 39 40 41 42 44 44 44 44 42 42 44 46 48 48 47 48 49 48 46 44 46 44 40 40 44 46 46 44 41 39 38 36 37 36 34 35 33 31 31
23 19 16 13 11 10 9 8 8 7 7 7 7 7 7 7 7 7 8 8 8 8 8 7 7 7 7 6 7 8 9 9 11 11 12 14 17 20 24 29 33 36 40 46 47 46 46 47 47 47 46 44 46 48 48 49 48 44 44 48 50 49 49 50 50 52 53 52 52 54 50 43 45 52 51 48 47 46 45 43 42 41 39 39 39 36 35 35
25 25 26 25 22 20 18 16 15 14 13 12 11 10 9 9 8 7 7 7 7 7 7 7 8 8 9 10 11 14 16 18 20 21 23 27 29 32 36 42 47 51 53 55 54 52 53 53 53 54 49 43 46 50 51 52 49 41 39 47 54 56 58 60 60 60 60 59 57 56 50 44 49 56 54 50 50 49 48 47 45 44 43 42 42 41 40 39
39 33 30 30 30 30 30 29 27 26 25 24 23 22 21 20 18 16 15 15 14 15 16 17 19 20 21 23 25 28 30 32 36 37 38 42 45 47 49 51 52 52 51 49 47 47 51 52 53 56 49 39 40 47 50 50 40 24 23 37 53 62 67 69 70 71 72 70 65 60 55 53 54 55 55 54 52 50 50 49 46 46 46 44 44 44 43 44
Wind_Speed
18 19 19 20 21 22 23 24 25 26 26 26 26 26 25 25 24 24 23 23 23 22 22 22 21 21 21 21 21 21 21 21 21 21 21 21 21 22 22 22 22 22 22 21 21 20 20 20 19 19 20 20 21 21 20 20 20 20 20 19 19 19 21 23 23 23 24 24 24 23 22 24 25 26 27 28 29 27 25 25 27 29 29 30 30 30 28 28
19 19 19 20 21 22 24 24 25 25 25 25 25 25 24 24 23 23 22 22 22 22 22 22 22 22 22 22 22 22 22 21 21 21 21 21 21 22 22 22 23 23 22 22 21 21 21 21 20 20 20 20 20 20 20 20 19 19 18 18 19 20 22 23 23 23 23 23 23 22 23 23 24 25 26 27 28 26 24 23 25 27 29 30 30 30 29 28
19 19 20 21 22 23 24 24 24 24 24 24 24 24 23 22 22 21 21 21 22 22 22 22 22 22 23 23 23 23 22 22 22 21 21 21 21 22 23 23 23 23 23 23 22 22 22 22 21 21 21 21 20 20 20 20 20 19 18 19 21 22 23 22 22 23 23 23 23 22 23 23 24 24 24 25 25 25 23 21 20 22 26 27 28 29 29 29
19 19 20 21 22 22 23 23 23 22 22 22 22 22 21 21 20 20 20 21 21 22 22 22 22 22 22 22 22 23 23 23 22 22 21 22 22 23 24 24 24 24 24 24 23 23 23 23 23 22 22 21 21 21 21 21 20 19 19 20 22 23 22 22 22 23 23 23 22 22 22 22 22 22 22 22 22 22 21 18 17 20 23 26 28 29 28 26
19 19 20 21 21 21 21 21 21 21 20 20 20 20 19 19 18 19 19 20 20 21 21 21 21 21 21 21 21 21 22 23 22 22 22 22 23 23 24 24 24 24 24 24 24 24 24 24 23 23 23 22 22 22 22 21 20 20 20 21 23 23 23 22 22 22 22 22 22 22 22 21 21 21 20 20 20 21 20 18 19 22 25 26 27 27 25 23
18 19 19 20 20 19 19 19 19 18 18 18 18 18 17 17 16 17 18 18 19 19 20 20 19 19 19 19 19 19 20 21 21 21 21 22 22 23 24 24 24 24 24 24 24 24 24 24 24 24 24 23 23 23 23 22 21 22 22 23 24 23 22 21 21 21 21 21 22 21 21 21 20 20 19 19 21 23 24 24 24 26 27 27 25 23 22 22
18 18 18 18 18 17 17 17 17 16 16 16 16 15 15 15 15 15 16 17 18 18 18 18 17 16 16 16 17 17 18 19 19 20 20 21 22 22 23 23 23 23 23 23 24 24 24 24 24 24 24 24 23 23 23 23 23 24 24 25 25 24 21 19 19 19 20 21 21 21 21 20 19 19 19 20 22 24 25 27 28 29 28 26 24 22 22 23
17 18 17 17 16 16 15 15 14 14 14 14 14 13 13 13 13 14 15 16 16 17 17 16 15 14 15 15 15 16 17 17 18 19 19 20 20 20 20 20 21 22 22 23 23 24 24 24 24 23 23 23 23 24 24 24 24 24 25 26 26 25 22 20 19 19 19 20 20 19 19 19 19 20 21 22 23 25 26 28 29 28 26 25 24 23 23 23
17 17 16 16 15 14 14 13 13 12 12 12 12 11 11 12 12 13 14 15 15 16 15 15 14 13 14 14 15 15 16 16 17 17 17 17 18 18 18 18 19 20 21 23 23 23 23 23 23 23 23 23 24 24 24 24 24 25 26 27 27 25 24 22 21 20 19 20 19 19 19 19 20 21 23 25 26 27 28 29 28 27 26 25 24 23 23 23
16 16 16 15 14 13 13 12 11 11 11 10 10 10 10 10 11 12 13 14 14 15 14 14 13 13 13 13 14 14 15 15 15 15 15 15 16 16 17 17 17 18 20 20 21 21 21 21 21 22 22 22 23 23 22 22 23 24 26 26 26 26 25 24 23 21 20 20 20 20 20 20 21 22 24 26 27 28 29 29 29 27 26 25 25 25 25 24
16 15 15 14 14 13 12 12 11 11 10 10 9 9 9 9 10 11 12 13 13 14 13 12 12 12 12 13 13 13 14 14 14 14 14 14 14 15 15 15 16 17 18 18 19 19 20 20 20 21 21 21 21 20 19 19 20 22 24 24 24 25 25 25 24 22 21 21 21 21 21 22 22 22 24 26 27 29 30 30 30 28 27 26 26 26 25 24
15 15 15 14 13 13 12 12 11 11 11 10 9 8 8 8 9 9 10 11 12 12 12 12 12 11 12 12 12 12 13 13 13 13 13 13 13 13 14 14 15 15 15 16 17 18 19 20 20 20 20 20 20 19 17 18 19 20 21 21 23 24 25 25 24 23 22 22 22 21 22 23 23 24 25 26 28 29 30 31 30 29 28 27 26 25 24 23
15 15 14 14 13 13 12 12 12 12 12 11 10 9 8 8 8 9 9 10 11 11 11 12 12 12 12 12 12 13 13 12 12 12 11 12 12 12 12 13 13 13 13 13 14 16 17 19 19 20 20 20 19 18 17 18 19 19 19 20 21 23 24 24 23 22 22 23 23 23 24 25 25 26 27 28 29 30 30 31 30 29 28 26 25 24 23 23
15 15 14 14 13 13 13 13 13 13 13 12 11 10 9 9 9 9 9 9 10 10 10 11 12 13 13 13 13 13 12 12 12 11 11 11 11 11 11 11 12 11 11 11 11 12 14 16 17 19 19 19 18 18 18 19 19 19 19 19 21 22 22 22 21 22 23 25 25 24 25 26 26 27 27 28 29 29 29 29 28 27 26 25 25 25 24 24
16 15 15 14 14 14 13 13 13 13 13 12 12 11 10 10 10 10 10 10 10 9 10 10 11 13 14 14 14 14 13 12 11 11 11 11 10 11 11 11 11 11 10 9 9 10 12 13 14 16 16 16 16 16 18 19 20 19 18 19 19 19 20 20 21 22 24 26 26 26 26 26 27 28 27 28 29 28 27 27 28 27 26 27 27 27 26 26
16 15 15 15 15 14 14 14 14 14 13 13 12 11 11 11 11 11 11 11 11 10 10 10 10 12 13 14 14 14 14 13 13 12 12 12 11 11 11 11 11 10 10 9 9 10 10 10 10 12 13 13 13 15 17 19 19 18 18 18 17 18 18 19 21 22 23 25 26 26 27 26 27 28 27 28 29 27 27 28 28 28 28 28 27 26 25 25
15 15 15 15 15 15 15 15 15 14 14 14 13 12 12 12 12 12 12 12 12 11 11 11 11 12 12 13 14 15 15 15 14 13 13 13 12 11 11 11 11 11 10 9 9 9 8 8 8 9 10 11 13 15 16 17 17 17 17 17 16 17 18 19 21 21 22 23 25 27 27 26 27 28 28 29 29 27 27 28 27 27 27 26 25 24 23 22
15 15 16 16 16 16 16 16 15 15 15 14 14 13 13 13 13 13 13 13 13 13 12 12 12 13 12 12 14 15 16 16 15 15 15 14 14 12 12 12 12 12 11 10 9 8 7 7 8 9 11 12 13 14 15 15 15 15 16 16 16 16 17 18 20 20 21 23 25 26 26 26 27 28 28 30 31 29 28 28 27 26 25 25 24 23 23 22
15 15 16 16 16 16 16 16 16 16 15 15 15 15 14 14 14 14 14 14 14 14 13 12 13 14 14 14 14 14 14 15 16 16 16 16 15 14 13 13 13 13 13 12 10 8 8 8 9 11 13 14 12 12 14 14 14 14 14 15 15 15 16 17 18 19 21 22 23 25 24 24 26 27 27 29 31 30 29 27 26 25 25 25 25 24 23 22
15 15 16 16 16 16 16 16 17 17 16 16 16 16 15 15 15 15 15 15 14 14 13 13 14 14 14 14 14 14 14 14 15 15 15 16 16 16 15 15 15 15 15 14 12 11 10 10 11 14 15 14 12 12 14 14 14 15 15 15 15 15 15 17 18 19 20 20 22 22 21 22 24 24 25 27 29 29 29 28 27 26 25 24 23 23 23 22
15 15 16 16 17 17 17 17 17 17 17 17 17 16 16 16 16 16 15 15 14 14 14 14 15 14 14 15 15 15 15 14 14 14 15 15 16 16 16 16 16 16 16 16 15 13 12 12 15 18 17 15 14 14 15 15 15 16 16 16 16 16 17 18 20 21 21 21 21 20 19 20 21 22 23 25 26 27 29 29 28 27 24 22 22 22 22 21
15 16 16 17 17 17 18 18 18 18 18 18 18 18 17 17 17 17 17 17 16 16 16 16 16 16 16 16 15 15 15 15 15 15 15 16 16 16 17 17 17 17 17 17 17 16 15 16 20 21 19 18 18 17 17 17 17 17 17 17 17 18 19 21 23 24 24 23 23 22 21 21 22 22 23 24 25 27 29 29 29 27 23 22 23 23 24 23
15 16 17 17 18 18 18 18 19 19 19 19 19 19 19 19 19 19 18 18 18 18 18 18 18 17 18 18 17 16 16 15 15 16 16 16 16 16 17 17 17 18 18 18 17 16 18 21 23 23 21 21 21 20 20 19 19 20 20 20 20 21 22 24 25 26 26 26 25 24 24 23 24 24 24 25 26 28 29 29 29 28 24 24 24 24 25 25
16 17 17 18 19 19 19 19 20 20 20 20 20 20 20 20 20 20 20 20 19 20 20 20 20 19 19 19 18 18 17 16 16 15 16 16 15 16 17 17 17 19 19 18 17 16 19 22 23 23 22 22 22 22 21 21 21 22 22 22 23 24 25 26 28 29 28 28 27 27 26 25 25 25 25 25 26 27 28 28 28 28 27 27 26 25 25 26
17 18 18 19 20 20 20 20 21 21 21 21 21 20 20 20 20 19 20 20 20 20 21 21 21 20 20 20 19 19 18 17 17 16 16 15 15 15 16 17 18 19 18 18 17 17 20 23 22 23 23 22 21 21 20 20 21 22 22 23 24 26 27 29 30 29 29 29 29 28 27 26 25 26 26 26 27 28 28 29 29 30 30 30 29 27 27 28
17 18 19 19 20 21 21 21 21 21 21 20 20 19 19 19 19 19 19 19 19 20 20 20 20 20 20 20 19 19 19 18 18 17 17 16 16 16 16 17 17 18 17 16 16 17 21 23 23 23 23 22 21 20 20 21 21 21 21 22 24 26 28 29 28 28 28 29 29 28 28 27 25 25 27 27 28 29 30 30 31 31 31 30 29 27 27 27
17 18 18 19 20 21 21 21 20 20 20 19 19 19 18 18 18 18 18 18 17 18 18 18 18 19 19 19 19 18 18 17 18 18 17 17 16 17 17 18 17 18 17 16 17 18 20 22 22 22 22 21 21 21 22 22 22 21 22 23 24 26 27 27 27 27 28 29 29 28 29 29 27 25 26 28 29 30 31 31 31 31 31 31 29 28 27 27
18 18 19 19 20 20 20 20 20 20 19 18 18 17 17 17 17 17 17 17 16 16 17 17 17 18 18 17 18 18 17 17 17 17 17 16 16 16 17 18 18 18 18 17 18 18 20 21 22 21 19 19 20 21 22 23 22 22 23 24 25 26 26 26 27 28 29 29 29 29 29 30 29 26 27 29 30 31 31 32 32 32 32 32 32 30 28 26
19 19 19 19 19 19 19 19 19 18 18 17 17 16 16 15 15 16 17 16 16 16 16 16 17 17 16 16 16 16 16 16 15 15 15 16 16 16 17 18 18 19 19 18 18 19 19 21 21 20 18 17 19 20 21 22 22 22 23 23 24 25 25 27 28 28 29 29 28 28 29 30 30 27 27 29 29 30 32 32 32 33 33 33 33 31 29 27
20 20 19 19 18 17 18 18 18 17 17 16 16 15 15 15 15 15 15 15 15 15 14 15 15 15 14 14 14 14 13 13 13 13 13 14 14 15 16 17 17 18 18 18 18 18 19 20 21 21 19 18 19 19 20 21 21 21 21 22 23 24 25 27 28 28 29 29 27 27 29 31 31 28 26 27 27 29 30 31 33 34 33 33 32 31 31 30
21 20 19 18 17 16 16 16 16 16 16 15 15 14 14 14 13 13 12 13 14 14 13 13 13 13 12 12 13 13 12 12 12 11 10 10 11 12 13 14 15 16 16 17 17 18 19 20 21 21 19 19 19 19 19 20 20 20 21 22 23 24 25 25 25 26 27 27 25 25 26 27 28 26 24 23 24 26 28 29 31 32 31 30 29 28 28 28
21 20 18 17 16 16 15 15 15 16 15 14 14 13 13 13 12 11 10 11 13 13 13 12 12 12 11 10 10 11 10 10 10 10 9 9 9 10 10 11 11 12 13 14 14 15 16 17 18 18 18 18 18 17 17 18 18 19 20 21 22 23 24 24 23 24 24 23 22 22 23 23 23 22 20 20 20 22 23 25 26 26 24 23 23 21 20 20
21 19 18 17 16 15 14 14 15 15 15 14 13 13 13 12 12 11 10 11 11 12 12 11 11 11 11 10 9 9 9 8 8 9 8 8 9 9 9 9 9 9 10 10 10 11 12 13 14 14 15 16 16 15 15 16 17 19 20 21 22 23 23 22 21 21 20 21 21 21 22 22 21 20 19 19 20 20 21 22 22 21 19 18 18 15 13 14
21 19 18 17 15 15 14 14 14 15 15 14 14 14 14 13 13 12 12 11 11 11 11 12 13 12 12 11 11 10 9 9 8 8 8 9 10 10 10 10 9 10 10 11 11 10 10 12 12 12 13 14 15 15 15 17 18 20 20 21 22 21 21 21 21 21 21 21 22 22 23 23 21 20 20 19 20 20 19 20 20 19 19 17 17 14 11 11
21 20 18 17 16 15 15 15 15 16 16 16 15 15 15 15 15 14 14 13 12 12 12 12 14 15 14 13 12 11 10 11 10 10 10 10 11 12 13 12 12 12 12 13 13 12 11 11 12 14 14 14 14 16 17 18 19 19 21 21 21 21 21 23 23 23 23 24 24 23 24 23 22 21 20 19 19 19 18 18 18 19 19 19 18 16 12 12
22 21 19 18 17 17 17 17 17 17 18 18 17 16 16 16 16 16 15 15 14 13 12 13 15 16 16 15 14 13 12 12 12 12 13 13 13 14 15 15 16 15 15 15 15 15 14 13 13 15 16 16 16 17 18 20 20 20 21 21 21 21 22 23 24 25 25 26 26 25 25 24 23 23 22 20 19 19 19 19 19 20 21 20 19 18 15 14
24 23 21 20 18 18 19 18 18 18 18 19 19 18 17 16 17 17 17 17 16 15 14 14 15 16 16 17 17 16 14 14 14 15 16 17 17 17 17 18 18 18 19 19 19 19 19 17 16 16 17 18 18 18 19 21 22 22 22 22 21 23 24 24 24 26 27 28 28 28 27 26 25 25 24 22 21 21 20 20 20 20 20 20 19 19 18 16
25 24 23 22 20 20 20 20 19 19 19 20 20 19 18 18 18 18 19 18 18 17 17 17 17 17 18 18 18 18 17 17 18 18 19 20 21 21 21 21 21 22 22 22 22 22 22 22 20 18 19 19 20 20 20 22 23 23 23 23 23 24 26 26 26 28 29 30 31 30 29 28 27 25 24 23 21 21 21 21 21 21 21 21 20 20 20 20
26 26 25 24 23 23 22 21 21 20 20 20 20 20 19 19 19 19 20 20 20 20 20 20 20 20 20 20 20 20 20 20 21 22 22 23 23 24 24 24 24 25 25 25 25 25 25 26 25 22 22 22 22 22 22 22 24 25 25 26 26 27 27 29 30 30 31 32 33 33 33 31 28 26 25 24 22 21 21 22 23 23 23 23 22 22 22 22
27 27 27 26 26 26 24 23 22 21 21 20 20 20 20 20 20 20 21 22 23 22 22 22 22 22 22 22 22 22 22 23 24 24 25 25 26 26 26 26 27 27 28 28 28 28 28 29 29 27 26 26 26 25 25 25 26 27 28 29 29 29 29 30 32 32 32 33 35 36 36 34 30 28 28 27 25 23 23 23 24 25 25 25 24 24 24 24
28 28 28 28 28 28 28 26 25 24 23 22 21 22 21 21 21 21 22 23 24 24 23 23 23 23 23 24 24 25 25 25 26 26 27 27 28 28 29 28 28 29 29 30 31 31 31 32 32 31 30 29 29 29 29 28 28 29 30 31 31 31 31 32 33 34 34 34 35 37 38 36 33 31 30 29 28 28 27 28 27 27 28 28 28 27 27 27
29 29 29 29 30 30 30 30 29 28 26 25 24 24 24 23 23 23 23 24 25 25 25 25 25 25 26 26 27 28 28 28 28 28 29 29 29 30 31 31 31 31 31 32 33 33 34 34 35 34 33 32 32 32 32 32 32 32 32 32 32 33 33 33 34 34 35 36 37 38 39 39 37 34 33 32 32 32 33 33 33 32 32 32 31 31 30 29
29 29 30 30 31 31 32 32 32 31 30 29 28 28 27 26 26 25 25 25 26 27 27 28 28 28 28 29 30 31 31 32 32 31 31 32 32 32 32 32 33 33 33 33 34 34 35 36 37 37 36 35 35 35 35 34 34 35 35 35 35 35 35 35 35 35 36 38 38 39 41 42 40 37 36 36 35 35 36 36 37 37 37 36 36 34 33 32
28 29 30 31 32 33 33 34 33 33 33 33 32 32 31 30 29 28 28 28 28 29 30 30 31 31 31 32 32 33 34 35 35 35 34 34 34 34 34 34 34 34 35 35 35 35 36 37 38 38 39 38 38 38 38 37 37 37 38 38 38 38 38 38 39 39 40 41 40 41 44 44 42 41 40 39 39 39 39 40 40 40 40 39 39 39 38 36
27 28 29 30 32 34 35 35 34 34 35 35 36 35 35 34 32 31 31 31 31 31 32 32 33 33 34 34 35 35 36 36 37 37 36 36 36 36 36 36 36 36 36 36 36 37 37 37 38 39 40 40 40 40 39 39 39 40 40 40 40 40 41 41 42 43 44 45 44 45 46 46 45 45 44 43 44 44 44 44 44 44 43 43 43 43 43 42
27 28 29 30 31 33 34 35 35 35 36 37 37 38 37 37 36 35 35 35 34 34 34 35 35 36 36 37 37 38 38 38 38 38 38 38 38 38 38 38 38 37 37 37 37 38 38 38 39 40 41 41 41 41 40 41 41 41 41 41 42 42 42 42 44 45 46 47 47 48 48 48 48 49 49 48 48 48 48 48 48 49 48 48 48 47 47 46
26 27 28 29 31 32 33 33 34 35 36 36 37 38 38 38 39 39 38 38 38 37 37 37 37 38 38 39 39 40 40 40 40 40 40 40 40 40 40 40 39 39 39 39 38 39 39 39 39 40 40 41 42 42 41 41 41 41 41 43 43 44 44 44 44 45 46 47 48 48 48 48 49 50 50 51 51 51 52 51 52 52 51 50 49 49 48 48
26 27 27 29 30 31 32 32 33 34 34 35 36 36 36 37 38 39 39 39 39 39 39 39 39 39 39 39 40 41 41 41 42 42 41 41 41 41 41 41 40 40 40 40 40 40 40 40 39 39 40 41 41 42 42 42 41 41 41 43 44 45 45 45 46 46 46 47 47 48 48 47 47 49 50 50 51 51 51 50 50 50 50 49 48 48 48 48
25 26 26 28 29 29 30 31 32 33 34 34 35 35 35 36 37 38 39 39 39 39 39 40 40 40 40 40 40 41 42 42 42 42 42 42 42 42 42 41 41 41 40 40 39 39 40 40 40 40 40 41 41 42 43 43 43 43 43 43 44 45 46 46 47 47 46 46 46 47 48 46 46 48 49 49 50 50 50 50 49 49 48 47 47 47 47 48
25 25 25 26 27 28 28 30 31 32 33 34 34 35 35 36 37 37 38 39 39 39 39 39 40 40 40 41 41 41 41 41 42 42 42 42 42 42 42 41 41 41 40 40 39 40 40 41 41 41 42 41 42 42 43 44 45 45 46 46 47 47 46 46 45 45 45 45 45 46 48 46 45 47 48 49 49 50 50 50 50 49 49 48 47 47 46 47
27 27 26 26 27 27 27 28 29 30 31 32 32 33 34 35 36 37 37 37 38 38 38 38 39 39 40 40 40 40 41 41 41 42 42 42 42 42 42 41 41 41 40 40 41 41 42 43 43 44 44 44 43 43 44 46 47 48 48 49 47 47 46 45 45 45 45 45 45 46 48 46 44 45 47 48 49 49 49 49 49 49 49 48 48 48 47 48
29 29 29 29 29 29 28 29 29 29 29 30 30 31 31 32 33 34 35 35 36 36 37 37 37 38 39 39 39 40 40 40 41 41 41 42 42 42 42 42 42 42 41 42 42 42 43 44 44 45 46 46 45 45 46 47 49 49 48 47 46 45 46 46 46 46 45 45 46 47 48 46 44 45 46 46 47 48 48 49 48 48 48 48 48 48 49 49
Wind_Direction
273 274 276 278 280 282 283 284 284 284 284 284 283 282 281 279 276 272 269 267 265 265 264 264 265 266 265 265 264 264 264 265 266 267 268 268 267 267 266 265 264 262 261 261 260 258 257 255 252 247 243 241 239 237 235 234 233 233 234 235 235 236 237 237 236 235 236 239 239 238 236 235 235 236 239 244 246 246 246 243 242 245 245 247 248 250 251 253
270 273 275 277 280 282 283 283 283 283 283 283 282 281 280 278 274 271 267 264 263 262 263 263 264 264 264 264 264 263 264 264 265 266 266 266 266 266 266 265 263 262 260 259 257 255 253 251 248 244 241 238 236 235 234 232 231 231 231 232 235 237 238 238 237 238 238 240 241 240 239 239 238 238 239 243 247 249 249 245 242 243 245 247 249 250 250 253
269 272 274 278 280 282 283 283 282 282 281 281 281 280 279 277 273 268 265 262 261 260 261 262 262 263 264 264 264 263 263 262 263 263 264 265 265 265 265 265 264 262 260 258 255 253 251 248 246 243 240 237 235 233 233 231 230 229 227 230 235 237 238 238 239 240 240 241 242 243 243 243 243 243 241 243 246 249 249 245 240 240 243 245 247 247 248 250
268 272 275 278 280 282 282 282 281 281 280 280 280 280 279 275 270 266 262 260 259 259 259 260 261 262 263 264 264 262 261 260 260 261 262 263 264 264 264 264 263 262 260 258 255 252 250 247 244 243 241 238 236 234 233 232 230 228 226 231 235 235 237 238 240 242 243 243 244 246 248 248 247 247 246 244 245 247 245 239 231 231 235 238 241 244 246 250
268 272 276 279 281 281 281 281 280 280 280 280 281 280 278 273 267 262 259 258 257 257 258 259 260 262 263 263 263 262 260 259 258 259 260 261 263 263 264 263 262 260 258 257 254 251 248 245 243 242 241 239 237 236 235 234 232 230 228 231 233 233 236 239 241 245 247 248 248 250 252 253 252 250 248 245 241 237 233 228 226 230 234 237 239 242 246 251
268 273 277 279 280 280 279 280 280 280 280 281 282 282 278 272 265 260 257 256 256 256 256 258 259 261 262 262 262 261 259 258 258 258 259 260 261 262 263 262 260 258 255 254 252 249 246 243 242 240 240 240 240 239 239 237 235 233 230 230 232 233 237 242 246 250 252 251 251 252 254 255 255 252 249 245 240 235 231 227 227 232 236 237 238 241 246 252
270 275 277 278 278 277 277 278 280 281 281 283 285 284 279 272 265 260 257 255 254 254 255 256 257 259 260 260 259 259 257 257 257 257 258 259 260 261 262 261 259 256 252 250 247 246 244 243 242 241 242 243 244 244 244 243 239 236 233 233 236 237 241 247 250 252 253 252 252 252 254 254 253 253 248 242 238 238 238 233 231 235 236 236 238 242 247 252
271 274 275 275 274 275 276 278 281 283 284 286 288 286 279 271 266 261 258 255 254 253 253 254 254 254 255 256 256 255 255 255 255 255 256 258 259 259 259 259 257 254 250 247 245 243 243 243 243 244 245 246 247 247 247 246 242 238 237 238 240 240 244 249 250 252 253 253 253 251 251 250 249 249 243 236 233 234 236 235 234 235 235 237 241 244 248 253
270 272 272 272 272 273 276 279 283 286 288 289 290 290 280 270 265 262 259 257 254 252 251 251 250 249 250 251 253 254 254 254 254 255 256 257 257 257 256 254 253 251 249 248 246 244 243 243 244 244 245 246 246 247 248 247 244 241 240 241 241 242 246 248 248 251 253 254 252 250 249 247 246 244 238 235 231 231 232 231 233 234 235 239 243 245 249 254
268 269 269 269 270 272 275 279 283 287 290 291 292 292 285 274 266 262 260 258 256 253 251 250 248 247 247 249 252 255 256 256 256 257 257 257 257 256 254 252 250 250 249 248 247 246 245 244 243 243 244 244 244 246 247 246 244 243 242 241 241 243 245 246 247 249 252 254 252 250 249 246 245 242 238 236 233 233 233 231 232 234 236 240 243 247 252 258
266 266 266 267 269 272 275 277 280 282 285 288 291 293 291 283 272 266 263 261 260 258 256 254 251 250 250 251 255 259 259 258 259 259 259 259 259 258 257 254 251 249 247 246 244 242 241 238 237 238 239 240 241 242 241 241 241 241 241 241 241 242 244 244 245 248 251 253 252 250 249 247 246 243 240 239 237 236 236 233 233 234 236 240 245 252 260 267
263 263 264 265 268 271 274 276 276 277 278 280 284 288 290 288 282 275 270 268 266 264 263 260 257 255 255 255 257 260 260 261 262 261 261 261 261 260 258 256 252 250 248 246 244 241 239 237 235 234 235 235 235 234 232 232 233 235 238 239 240 240 242 243 244 246 249 251 251 250 248 247 246 243 241 241 239 239 238 237 237 238 240 245 252 260 266 270
260 260 262 265 267 271 273 275 274 273 273 274 276 279 282 285 287 285 282 278 274 272 268 264 261 258 257 258 258 259 259 261 263 264 266 267 266 262 259 258 255 251 248 248 247 246 244 241 238 235 232 230 228 227 225 225 226 229 232 235 236 237 239 240 241 243 245 246 248 247 246 247 247 244 242 241 240 241 242 243 243 244 247 251 258 263 267 267
258 259 260 264 267 271 273 273 272 271 271 271 272 273 275 278 281 285 286 285 283 280 274 268 264 260 258 258 257 257 257 259 260 263 267 269 269 266 262 259 255 247 243 244 246 247 246 244 241 236 232 229 228 226 223 222 222 224 226 229 231 232 235 237 237 239 240 241 243 244 243 245 247 247 246 246 245 244 246 248 248 249 252 255 259 263 265 262
257 257 259 263 267 270 272 272 271 270 270 271 271 272 274 276 277 279 281 282 284 284 281 274 268 262 259 258 257 256 256 257 257 258 261 263 267 269 266 260 253 245 240 239 238 239 242 243 242 238 236 235 232 228 225 223 221 219 219 221 224 226 229 231 231 234 237 239 242 243 243 244 247 250 250 251 251 251 251 251 252 252 254 257 260 261 261 258
256 257 259 261 265 268 270 271 271 270 270 270 270 272 274 276 276 275 275 276 278 280 280 278 274 267 261 258 258 257 256 255 254 255 257 259 261 267 269 265 259 253 247 240 237 236 236 239 241 240 240 239 233 228 225 223 219 217 217 216 217 219 223 227 229 231 235 240 244 245 245 245 246 249 251 253 253 253 253 253 255 257 259 260 260 259 257 256
256 256 257 259 263 266 269 271 271 271 270 270 270 271 273 274 275 275 273 273 273 273 272 273 272 270 264 259 259 258 257 255 254 255 256 257 259 263 268 270 267 263 256 247 242 240 239 237 237 237 238 236 232 227 224 222 219 217 217 215 214 216 220 224 229 232 235 240 245 247 248 248 248 248 250 254 256 255 255 258 261 263 264 262 258 256 256 255
257 257 257 259 262 265 268 271 272 272 271 270 270 270 271 273 274 275 274 272 272 271 270 268 267 267 265 259 256 256 258 258 257 256 256 258 259 260 262 266 267 264 259 252 245 243 244 241 235 232 232 230 228 225 222 221 219 216 214 211 211 216 221 225 229 231 233 237 242 246 248 248 248 249 249 253 257 258 259 262 265 266 265 262 259 259 258 256
259 258 258 260 262 264 267 270 272 272 271 271 270 270 271 272 273 273 272 272 271 270 269 268 266 265 263 261 259 259 260 262 262 261 259 260 259 258 256 259 262 262 259 253 246 241 242 244 240 235 233 230 224 220 219 219 219 216 215 213 212 217 223 227 230 232 235 237 240 244 245 245 246 247 247 249 254 258 261 262 262 261 261 260 261 261 261 258
260 260 260 261 262 265 267 270 271 272 271 272 273 273 273 274 273 272 271 271 269 266 265 263 263 264 265 264 264 262 262 263 263 263 261 261 261 259 255 254 257 259 260 258 254 247 242 243 245 244 243 241 234 226 222 222 222 221 221 222 223 224 228 231 233 234 237 239 241 243 244 244 245 244 243 246 250 254 258 259 257 256 256 258 260 261 262 259
260 260 261 262 263 266 268 270 271 272 273 273 274 275 275 274 273 272 271 269 266 263 261 259 259 261 264 264 264 263 262 262 262 260 259 259 260 259 257 256 256 259 261 262 260 254 250 248 249 249 251 252 249 243 239 234 233 232 231 232 233 233 235 236 238 239 240 241 244 245 243 243 243 240 239 243 247 251 255 257 256 255 256 259 261 259 256 253
260 261 262 264 266 268 270 272 272 273 274 275 275 275 275 273 272 271 269 267 265 262 260 258 258 259 259 261 262 264 264 262 260 258 257 257 257 257 257 256 256 257 258 259 259 256 254 252 252 252 253 255 254 251 250 247 245 245 244 242 242 241 240 242 243 244 244 244 245 247 246 246 245 241 241 243 245 249 253 256 257 258 258 260 261 257 251 247
261 263 265 267 269 270 272 274 275 275 276 276 276 276 275 274 272 270 268 266 263 261 260 259 259 259 258 259 260 261 261 260 258 257 256 256 256 256 256 255 254 254 253 253 254 253 252 251 253 256 256 256 257 255 253 252 252 252 252 251 249 248 247 247 248 247 247 247 246 247 247 249 250 249 248 247 247 250 254 257 259 260 258 256 256 255 252 247
265 268 270 271 272 273 274 275 276 276 277 277 276 276 275 274 272 271 268 265 262 261 260 260 259 259 258 258 258 258 258 257 256 255 256 256 256 256 256 254 253 253 252 252 252 251 252 253 255 258 258 257 258 258 257 256 255 254 254 254 252 252 251 250 251 251 252 252 252 251 249 248 250 252 252 250 250 252 254 257 259 260 258 255 255 253 248 245
269 271 273 274 274 275 275 275 276 276 277 276 276 275 274 273 272 270 268 265 262 260 259 259 258 257 256 256 256 257 257 256 255 255 255 256 256 256 257 256 256 256 257 258 256 253 254 255 256 257 258 258 258 260 260 258 256 254 253 252 251 251 251 251 253 256 258 258 257 256 254 250 247 249 251 252 253 254 254 256 257 257 257 256 255 253 247 244
270 272 274 275 276 276 276 275 275 275 275 275 274 273 273 273 271 270 267 264 261 259 257 256 254 254 254 254 254 255 255 254 254 254 254 253 253 254 256 257 258 261 262 261 258 254 254 256 256 257 258 259 259 260 259 256 254 253 251 250 250 251 253 254 257 260 261 261 261 260 258 255 249 246 249 252 254 255 255 256 257 258 259 259 259 257 251 246
273 274 276 277 278 277 276 276 276 274 273 273 272 271 271 271 271 270 267 262 259 258 256 253 251 251 252 252 253 253 251 252 253 253 253 253 253 253 255 257 259 260 261 259 256 253 255 258 258 258 259 260 259 257 255 254 253 252 251 249 249 251 254 257 259 261 260 260 261 262 261 260 256 249 248 250 252 254 256 258 259 261 263 264 264 261 255 250
278 278 278 278 278 278 278 277 275 273 272 271 270 269 269 269 268 267 265 261 258 256 254 251 250 250 252 252 253 252 251 253 253 252 254 254 253 253 254 256 257 257 257 255 253 253 255 259 260 261 262 262 259 255 254 254 252 251 250 251 251 253 255 257 258 259 259 260 261 262 262 263 261 254 249 249 250 252 255 257 260 262 264 265 266 266 263 259
282 281 280 279 278 278 277 275 273 271 270 269 269 269 268 267 265 264 264 260 257 256 253 249 248 249 250 250 251 252 253 256 256 256 258 257 256 255 253 254 254 254 255 254 255 256 257 259 262 263 262 260 259 258 256 255 254 253 252 253 255 257 258 258 259 260 261 261 263 266 266 265 264 259 253 251 251 252 253 256 258 260 262 266 269 271 271 270
284 284 282 280 278 276 275 273 271 269 268 266 267 266 265 263 262 263 263 258 254 253 249 246 245 244 245 244 244 244 247 252 255 257 260 260 261 258 255 256 255 256 257 257 258 260 261 262 264 264 261 257 257 259 260 259 258 257 256 255 255 256 258 260 263 265 266 267 268 269 268 267 266 264 260 257 256 255 255 255 257 258 262 266 269 272 273 275
285 284 282 279 276 274 272 271 269 267 266 265 264 263 261 259 258 260 258 252 248 246 244 243 239 236 236 236 236 237 240 244 246 247 250 252 254 254 255 256 257 259 263 264 263 262 263 264 264 264 261 258 257 259 261 263 263 263 261 261 261 262 264 266 268 269 270 272 272 269 268 268 267 266 263 260 259 258 258 257 258 261 265 268 270 271 274 275
283 283 281 278 275 271 270 268 267 266 264 262 260 258 256 253 251 251 248 243 243 241 239 238 232 227 227 225 225 230 236 240 243 244 245 246 250 252 255 258 260 263 267 270 271 271 271 269 267 267 265 261 259 260 262 265 267 267 267 267 267 267 268 269 270 271 271 272 271 269 268 267 267 266 263 260 257 255 257 260 263 265 268 270 272 273 273 275
281 281 278 276 273 270 267 264 263 263 261 257 255 253 250 246 241 240 238 238 238 234 231 230 225 216 212 210 213 224 233 239 245 249 252 255 260 262 263 265 268 270 273 277 281 283 284 280 275 273 269 263 260 258 259 261 262 262 263 264 264 266 269 271 271 271 270 269 269 269 269 267 267 268 265 262 261 259 258 262 266 269 269 271 274 274 271 272
278 278 276 273 268 265 263 261 258 257 257 254 251 250 247 239 233 232 232 234 234 228 227 228 221 210 209 216 221 227 235 242 248 256 262 265 270 274 275 276 276 278 281 283 284 285 285 283 283 279 270 266 262 257 254 254 256 258 260 261 263 266 270 272 271 271 270 270 269 269 270 269 269 270 268 266 266 266 262 261 264 266 268 270 271 269 258 255
273 273 272 269 264 259 258 257 254 252 253 252 249 248 246 238 231 231 232 234 236 233 234 235 227 221 226 232 235 239 247 253 257 264 271 273 277 281 283 284 286 288 289 288 287 285 281 281 282 280 275 271 266 261 259 257 257 260 262 262 265 267 268 269 270 271 271 271 270 270 270 270 270 269 267 265 265 266 263 258 257 260 265 269 270 265 248 233
271 269 268 265 261 257 254 253 251 250 249 249 247 245 243 240 235 235 237 238 238 238 238 239 234 233 238 242 244 250 256 259 264 271 277 280 282 284 287 289 291 293 293 292 291 288 284 279 276 277 277 274 267 262 262 262 260 260 262 263 266 267 267 268 270 271 271 270 269 268 269 270 270 269 266 263 263 263 259 255 253 255 259 263 265 264 253 232
269 267 264 262 259 257 254 250 249 248 248 248 247 243 241 239 238 239 240 240 240 240 240 241 241 242 244 246 249 255 261 265 270 276 281 284 285 286 287 289 290 293 293 293 291 290 289 285 279 275 274 272 269 264 260 259 260 260 261 264 265 266 268 269 269 270 271 271 270 268 267 267 268 268 266 263 261 260 256 252 252 253 256 258 258 259 257 245
266 265 262 259 256 254 253 250 248 247 247 248 248 246 242 239 238 239 240 241 242 241 240 243 245 247 249 252 256 262 269 273 276 279 283 286 286 287 288 289 290 291 291 291 289 289 290 288 284 278 273 270 268 265 259 258 260 260 260 261 260 261 265 267 268 269 270 272 272 271 269 266 264 264 263 262 260 258 254 251 252 254 256 256 254 253 254 253
264 262 259 256 254 252 251 249 248 246 246 247 248 248 245 242 240 240 240 243 244 243 242 244 246 249 252 257 262 267 272 276 278 281 283 284 285 286 287 288 289 289 289 289 287 287 288 287 285 281 276 271 267 264 259 257 258 259 259 259 259 259 261 264 266 268 270 271 271 272 270 267 264 262 262 262 261 257 252 253 257 261 261 258 253 250 249 249
263 261 257 254 252 251 250 248 247 246 246 247 247 248 247 245 243 242 242 243 246 246 246 246 248 250 254 259 264 268 272 275 278 279 280 282 283 284 284 285 285 285 287 287 286 286 286 286 286 283 279 275 270 268 263 259 257 256 257 257 258 258 259 261 263 265 266 268 270 271 271 270 268 265 264 266 265 259 255 257 262 265 266 263 257 252 249 247
262 260 258 255 252 250 249 248 247 247 246 247 248 249 249 248 246 244 244 245 247 250 250 250 251 253 256 260 264 267 269 271 273 275 277 279 280 281 281 282 281 281 283 284 284 284 284 285 285 283 280 276 273 271 268 265 262 260 259 259 258 257 257 258 260 262 264 266 267 268 269 270 269 267 267 269 269 267 262 261 263 267 269 268 265 261 257 254
261 260 259 257 255 252 250 248 248 248 248 248 249 250 251 251 250 248 247 247 249 252 254 255 256 257 259 262 265 267 269 270 271 272 274 275 276 278 279 280 280 279 280 280 281 282 282 283 284 282 280 275 273 272 269 268 267 266 265 264 262 262 261 260 261 263 265 266 266 267 268 268 267 266 267 268 269 268 265 263 264 267 269 269 268 267 265 263
259 259 259 258 256 254 252 250 249 249 250 251 252 252 253 254 254 254 253 253 253 254 256 258 259 261 262 264 266 268 270 272 273 273 274 274 275 276 276 277 278 278 278 278 278 279 279 280 281 281 279 276 273 271 268 266 267 267 267 267 265 266 266 265 265 265 265 266 267 269 269 268 268 269 267 266 265 265 264 264 266 268 270 271 270 269 269 269
258 257 257 258 257 256 254 253 252 251 251 252 253 255 255 256 258 259 260 260 259 258 259 261 262 264 266 267 268 270 271 273 274 274 275 275 276 276 275 276 276 277 277 277 277 277 276 277 278 278 277 275 273 271 270 268 267 266 265 264 264 264 265 265 265 265 264 264 264 266 268 269 270 270 269 267 265 265 264 264 265 267 269 271 272 271 271 272
261 259 257 257 257 257 256 256 255 254 254 254 255 256 258 259 261 262 263 264 264 264 264 265 265 267 268 269 270 272 272 274 275 276 276 276 276 276 276 276 276 275 276 276 276 277 275 275 275 275 274 274 271 269 269 268 267 267 265 264 263 262 261 261 262 262 263 263 262 262 263 266 268 268 268 267 266 266 266 266 267 268 269 270 270 271 272 273
264 262 260 258 258 258 257 257 257 256 256 256 257 257 259 261 262 263 265 266 266 267 267 268 268 269 270 271 272 273 274 275 275 276 276 276 275 276 276 276 276 276 276 276 276 276 275 274 274 273 273 273 271 268 267 266 266 267 266 265 264 263 262 261 261 261 262 263 263 262 262 265 265 265 266 266 266 266 266 267 268 269 270 271 271 271 272 273
265 263 262 260 259 259 259 259 258 258 258 258 259 259 260 262 263 263 264 265 267 267 268 269 269 270 271 271 272 273 273 274 274 275 275 276 276 277 277 277 278 278 277 277 276 275 275 274 272 271 271 271 270 269 268 267 266 266 265 264 264 263 263 263 262 263 263 264 266 266 265 267 267 266 267 267 267 266 267 268 269 270 271 271 271 271 270 270
266 264 263 262 261 261 261 260 260 260 259 259 260 260 260 261 262 263 264 264 265 266 267 268 269 269 270 270 270 271 272 273 274 275 276 276 277 277 278 278 278 278 278 277 276 276 275 274 272 270 269 268 268 268 268 267 267 266 265 264 263 263 264 265 265 265 265 266 268 269 269 271 271 270 270 271 270 270 270 270 270 271 271 271 271 270 269 268
269 267 265 264 263 262 261 261 260 260 260 260 260 261 261 261 261 262 263 264 265 265 266 267 268 268 269 269 270 271 271 272 273 274 275 275 276 276 277 277 277 277 276 276 276 276 275 274 273 271 268 267 266 266 267 268 268 268 267 266 265 264 264 264 265 266 268 269 270 271 271 271 271 271 271 272 273 273 274 273 273 273 273 272 270 269 267 266
271 270 268 267 266 265 264 263 262 261 260 260 260 260 261 260 260 261 262 263 264 264 265 266 267 267 268 268 269 269 270 271 271 272 273 273 274 274 275 275 275 275 275 275 275 275 274 274 273 271 269 267 266 266 267 268 268 269 269 268 267 267 267 267 268 269 269 269 269 269 268 268 268 269 270 270 271 272 272 273 274 274 274 273 271 269 268 266
267 268 268 267 267 266 266 265 265 264 264 263 263 262 261 261 261 261 261 261 262 264 264 264 265 266 267 267 268 269 270 270 271 272 272 273 273 273 273 273 274 274 274 274 274 273 273 272 272 271 270 269 268 268 268 268 268 268 268 268 269 271 272 272 271 270 269 268 267 266 266 266 266 267 267 267 268 268 269 270 270 271 272 272 272 271 270 268
266 265 265 265 265 265 265 266 266 266 266 266 266 266 265 265 264 263 263 263 263 264 265 266 267 268 268 269 270 271 272 272 273 273 273 273 273 273 273 273 273 273 272 271 271 271 271 271 271 271 271 271 271 270 270 269 268 268 269 271 272 272 272 271 270 269 268 268 267 266 267 267 266 265 266 267 267 267 268 268 269 270 270 270 269 269 268 268